Regional Weather Roundup
Issued by NWS

Home | Current Version | Previous Version | Graphics & Text | Print | Product List | Glossary On
Versions: 1 2 3 4 5 6 7 8 9 10 11 12 13 14 15 16 17 18 19 20 21 22 23 24 25 26 27 28
000
ASUS45 KPSR 051310
RWRAZ

ARIZONA HOURLY REGIONAL WEATHER ROUNDUP
NATIONAL WEATHER SERVICE PHOENIX AZ
600 AM MST MON DEC 05 2016

NOTE: FAIR INDICATES FEW OR NO CLOUDS BELOW 12,000 FEET WITH NO
SIGNIFICANT WEATHER AND/OR OBSTRUCTIONS TO VISIBILITY.

AZZ001>003-036-051400-
NORTHWEST ARIZONA

CITY           SKY/WX    TMP DP  RH WIND       PRES   REMARKS
BULLHEAD CITY  PTCLDY    45  19  36 E7        29.89S
KINGMAN        CLEAR     44   9  23 NE6       29.91R
$$

AZZ004>008-015-016-018-051400-
NORTH CENTRAL ARIZONA

CITY           SKY/WX    TMP DP  RH WIND       PRES   REMARKS
GRAND CANYON   PTCLDY    19  16  88 CALM      29.96S
PRESCOTT       PTCLDY    34  17  50 S9        29.96R WCI  27
FLAGSTAFF      CLEAR     21  14  74 CALM      29.99R
PAYSON         PTCLDY    37  14  38 CALM      29.99S
PAGE           PTCLDY    32  17  54 CALM      29.89F
$$

AZZ009>014-017-051400-
NORTHEAST ARIZONA

CITY           SKY/WX    TMP DP  RH WIND       PRES   REMARKS
WINSLOW        MOCLDY    27  17  66 SE6       29.92F WCI  20
SAINT JOHNS    MOCLDY    19  14  81 NW3       29.93S
WINDOW ROCK    CLEAR     18  12  77 CALM      29.93F
SHOW LOW       CLOUDY    37   9  30 S15       29.95S WCI  28
$$

AZZ023-051400-
GREATER PHOENIX AREA

CITY           SKY/WX    TMP DP  RH WIND       PRES   REMARKS
PHOENIX        PTCLDY    45  29  53 E7        29.90F
BUCKEYE        PTCLDY    36  28  75 W6        29.92S WCI  31
GLENDALE       PTCLDY    39  32  75 CALM      29.93
LUKE AFB       PTCLDY    41  32  70 CALM      29.90F
DEER VALLEY    PTCLDY    43  22  43 E6        29.90F
SCOTTSDALE     CLEAR     42  28  57 E5        29.92F
MESA-FALCON    CLEAR    N/A N/A N/A N6        29.90
MESA-GATEWAY   CLEAR     39  21  48 SE5       29.93S
CHANDLER       CLEAR     39  27  60 NE7       29.93  WCI  34
$$

AZZ027-028-051400-
SOUTHWEST MARICOPA COUNTY AND PINAL COUNTY

CITY           SKY/WX    TMP DP  RH WIND       PRES   REMARKS
CASA GRANDE    NOT AVBL
$$

AZZ503-504-507>509-051400-
SOUTHEAST ARIZONA

CITY           SKY/WX    TMP DP  RH WIND       PRES   REMARKS
TUCSON         CLEAR     41  22  46 SE9       29.97R
DAVIS-MONTHAN  CLEAR     42  21  44 SE12      29.96R
RYAN FIELD     CLEAR     34  23  64 S3        29.97
NOGALES        CLEAR     31  22  69 CALM      29.99R
SIERRA VISTA   CLEAR     36  16  43 W7        29.98S WCI  31
DOUGLAS        PTCLDY    27  24  89 SE5       30.00S WCI  22
SAFFORD        PTCLDY    28  23  81 CALM      29.96S
$$

AZZ020-021-025-026-031-051400-
SOUTHWEST ARIZONA

CITY           SKY/WX    TMP DP  RH WIND       PRES   REMARKS
YUMA           CLEAR     46  22  38 NE5       29.87S
$$

CAZ031-033-041-043-047-048-061-051400-
SOUTHERN CALIFORNIA

CITY           SKY/WX    TMP DP  RH WIND       PRES   REMARKS
DOWNTOWN L.A.  PTCLDY    47  41  80 CALM      29.94S
L.A. AIRPORT   FOG       53  53 100 E3        29.94S VSB 1/16
SAN DIEGO      PTCLDY    53  51  93 SE5       29.95F
BURBANK        CLEAR     45  28  51 CALM      29.93S
ONTARIO        CLEAR     45  33  63 CALM      29.94S
RIVERSIDE      CLEAR     46  35  65 CALM      29.94F
PALM SPRINGS   CLEAR     51  26  37 NE6       29.87S
EL CENTRO NAS  PTCLDY    40  19  43 CALM      29.87S
IMPERIAL       PTCLDY    43  24  47 VRB3      29.85S
BLYTHE         CLEAR     41  18  39 N9        29.88S
NEEDLES        PTCLDY    45  18  34 N8        29.91R
$$

NVZ020-UTZ003-051400-
SOUTHERN NEVADA-UTAH

CITY           SKY/WX    TMP DP  RH WIND       PRES   REMARKS
LAS VEGAS      MOCLDY    43  13  29 CALM      29.90R
SALT LAKE CITY LGT SNOW  32  21  64 N3        29.97R
$$

NMZ009-TXZ055-051400-
NEW MEXICO-WEST TEXAS

CITY           SKY/WX    TMP DP  RH WIND       PRES   REMARKS
ALBUQUERQUE    CLOUDY    27  13  55 SE5       29.93F WCI  22
EL PASO        PTCLDY    33  29  85 SE5       29.93F WCI  29
$$


........................KEY........................
SKY/WX - SKY CONDITION/WEATHER
TMP    - TEMPERATURE IN FAHRENHEIT
DP     - DEW POINT IN FAHRENHEIT
RH     - RELATIVE HUMIDITY IN PERCENT
WIND   - DIRECTION AND SPEED IN MILES PER HOUR (MPH)
VRB    - VARIABLE WIND DIRECTION
PRES   - MEAN SEA LEVEL PRESSURE IN INCHES OF MERCURY
         F - FALLING PRESSURE   R - RISING PRESSURE
         S - STEADY PRESSURE
VSB    - VISIBILITY IN MILES
HX     - HEAT INDEX IN FAHRENHEIT
WCI    - WIND CHILL INDEX IN FAHRENHEIT
TC     - TEMPERATURE IN CELSIUS WHICH IS ALSO KNOWN AS
         TEMPERATURE IN CENTIGRADE
AFB    - AIR FORCE BASE
         LUKE AFB IS LUKE AIR FORCE BASE
         DAVIS-MONTHAN IS DAVIS-MONTHAN AIR FORCE BASE
NAS    - NAVAL AIR STATION
         EL CENTRO NAS IS EL CENTRO NAVAL AIR STATION
N/A    - NOT AVAILABLE





USA.gov is the U.S. government's official web portal to all federal, state and local government web resources and services.